EW6576 Weather Reports


Display with metric or nautical units.
time (UTC)temp
F
wind
direction
speed
MPH
gust
MPH
rain 1hr
in
rain 24hr
in
rain mn
in
humidity
%
barometer
mb
20260503203643 65 95 2.0 3.0 0.00 0.00 0.00 68 1013.9
20260503203141 64 74 2.0 3.0 0.00 0.00 0.00 70 1013.9
20260503202638 65 191 5.0 7.0 0.00 0.00 0.00 68 1013.9
20260503202137 64 193 3.0 3.0 0.00 0.00 0.00 69 1014.0
20260503201634 65 156 3.0 5.0 0.00 0.00 0.00 68 1013.9
20260503201131 65 170 1.0 1.0 0.00 0.00 0.00 67 1014.0
20260503200627 65 228 3.0 5.0 0.00 0.00 0.00 68 1014.0
20260503200124 66 143 4.0 5.0 0.00 0.00 0.00 67 1014.0
20260503195621 67 93 7.0 8.0 0.00 0.00 0.00 66 1014.2
20260503195118 67 172 2.0 2.0 0.00 0.00 0.00 67 1014.0
20260503194615 67 205 3.0 5.0 0.00 0.00 0.00 67 1014.0
20260503194110 67 89 4.0 6.0 0.00 0.00 0.00 66 1014.1
20260503193607 66 165 4.0 5.0 0.00 0.00 0.00 68 1014.1
20260503193102 66 197 4.0 6.0 0.00 0.00 0.00 69 1014.1
20260503192558 66 167 4.0 5.0 0.00 0.00 0.00 69 1014.2
20260503192054 66 192 3.0 5.0 0.00 0.00 0.00 68 1014.1
20260503191551 65 51 3.0 3.0 0.00 0.00 0.00 69 1014.1
20260503191048 64 172 3.0 3.0 0.00 0.00 0.00 70 1014.1
20260503190545 64 114 4.0 5.0 0.00 0.00 0.00 72 1014.4
20260503190042 63 120 4.0 6.0 0.00 0.00 0.00 73 1014.3
20260503185533 63 165 3.0 3.0 0.00 0.00 0.00 74 1014.4
20260503185032 63 121 4.0 6.0 0.00 0.00 0.00 75 1014.4
20260503184529 63 116 2.0 3.0 0.00 0.00 0.00 76 1014.4
20260503184026 63 139 3.0 3.0 0.00 0.00 0.00 75 1014.3
20260503183522 63 136 2.0 2.0 0.00 0.00 0.00 75 1014.4
20260503183019 64 103 4.0 7.0 0.00 0.00 0.00 75 1014.3
20260503182518 64 155 2.0 3.0 0.00 0.00 0.00 76 1014.3
20260503182015 64 150 3.0 3.0 0.00 0.00 0.00 76 1014.5
20260503181512 64 153 1.0 2.0 0.00 0.00 0.00 76 1014.3
20260503181008 65 151 3.0 5.0 0.00 0.00 0.00 74 1014.3
20260503180506 66 131 0.0 0.0 0.00 0.00 0.00 72 1014.5
20260503180003 65 139 0.0 1.0 0.00 0.00 0.00 73 1014.3
20260503175501 64 122 1.0 1.0 0.00 0.00 0.00 74 1014.2
20260503174957 65 114 2.0 2.0 0.00 0.00 0.00 73 1014.4
20260503174455 65 139 1.0 1.0 0.00 0.00 0.00 74 1014.4
20260503173950 64 109 1.0 1.0 0.00 0.00 0.00 74 1014.2
20260503173446 65 124 3.0 3.0 0.00 0.00 0.00 73 1014.2
20260503172943 65 133 0.0 1.0 0.00 0.00 0.00 73 1014.3
20260503172440 64 150 2.0 2.0 0.00 0.00 0.00 73 1014.4
20260503171937 64 137 1.0 1.0 0.00 0.00 0.00 74 1014.4
20260503171433 64 148 3.0 3.0 0.00 0.00 0.00 74 1014.1
20260503170931 64 70 1.0 1.0 0.00 0.00 0.00 75 1014.3
20260503170427 64 29 3.0 3.0 0.00 0.00 0.00 74 1014.3
20260503150819 60 119 0.0 0.0 0.00 0.00 0.00 89 1013.9
20260503150315 59 114 0.0 0.0 0.00 0.00 0.00 89 1014.2
20260503140240 58 118 1.0 1.0 0.00 0.00 0.00 92 1013.8
20260503131209 57 122 1.0 2.0 0.00 0.00 0.00 95 1013.4
20260503130707 57 136 2.0 3.0 0.00 0.00 0.00 95 1013.2
20260503130204 57 130 2.0 2.0 0.00 0.00 0.00 95 1013.0
20260503120130 57 123 1.0 2.0 0.00 0.00 0.00 95 1012.6
20260503110557 58 122 1.0 1.0 0.00 0.00 0.00 97 1012.7
20260503090444 59 129 2.0 2.0 0.00 0.00 0.00 95 1012.8
20260503081410 60 108 2.0 2.0 0.00 0.00 0.00 94 1013.2
20260503080908 60 99 0.0 0.0 0.00 0.00 0.00 94 1013.2
20260503080404 59 104 1.0 1.0 0.00 0.00 0.00 94 1013.2
20260503072840 59 99 1.0 1.0 0.00 0.00 0.00 94 1013.9
20260503072337 59 113 3.0 3.0 0.00 0.00 0.00 94 1013.9
20260503071834 59 80 1.0 1.0 0.00 0.00 0.00 94 1013.9
20260503071331 59 89 1.0 1.0 0.00 0.00 0.00 94 1013.7
20260503070827 59 123 1.0 1.0 0.00 0.00 0.00 94 1013.7
20260503070326 59 123 1.0 1.0 0.00 0.00 0.00 94 1014.0
20260503060250 59 129 1.0 1.0 0.00 0.00 0.00 93 1013.4
20260503054737 59 150 0.0 0.0 0.00 0.00 0.00 93 1013.5
20260503054234 59 147 1.0 1.0 0.00 0.00 0.00 93 1013.5
20260503053732 59 99 0.0 1.0 0.00 0.00 0.00 93 1013.5
20260503053231 59 128 1.0 1.0 0.00 0.00 0.00 93 1013.3
20260503052727 59 103 2.0 2.0 0.00 0.00 0.00 93 1013.2
20260503052223 59 134 3.0 5.0 0.00 0.00 0.00 93 1013.3
20260503051718 59 102 2.0 2.0 0.00 0.00 0.00 93 1013.3
20260503051217 59 137 1.0 1.0 0.00 0.00 0.00 93 1013.1
20260503050713 59 116 2.0 2.0 0.00 0.00 0.00 93 1012.9
20260503050209 59 120 2.0 2.0 0.00 0.00 0.00 93 1013.0
20260503045707 59 129 1.0 1.0 0.00 0.00 0.00 93 1012.7
20260503045204 58 144 0.0 0.0 0.00 0.00 0.00 93 1012.8
20260503044700 58 136 1.0 1.0 0.00 0.00 0.00 93 1012.7
20260503044158 58 140 1.0 1.0 0.00 0.00 0.00 93 1012.5
20260503043655 58 136 2.0 2.0 0.00 0.00 0.00 93 1012.6
20260503043152 58 150 1.0 1.0 0.00 0.00 0.00 93 1012.6
20260503042648 58 129 1.0 2.0 0.00 0.00 0.00 93 1012.4
20260503042145 58 94 3.0 5.0 0.00 0.00 0.00 93 1012.3
20260503041641 58 134 0.0 0.0 0.00 0.00 0.00 93 1012.0
20260503041139 59 145 0.0 0.0 0.00 0.00 0.00 93 1012.1
20260503040636 59 135 1.0 1.0 0.00 0.00 0.00 92 1012.0
20260503040133 59 148 0.0 0.0 0.00 0.00 0.00 92 1011.8
20260503035629 59 139 0.0 0.0 0.00 0.00 0.00 92 1011.8
20260503035127 59 107 3.0 3.0 0.00 0.00 0.00 92 1011.7
20260503034625 59 140 1.0 2.0 0.00 0.00 0.00 92 1011.8
20260503034122 59 150 1.0 1.0 0.00 0.00 0.00 92 1012.1
20260503033619 59 160 1.0 2.0 0.00 0.00 0.00 92 1011.7
20260503033117 59 135 2.0 2.0 0.00 0.00 0.00 92 1011.7
20260503032615 59 147 1.0 2.0 0.00 0.00 0.00 92 1011.6
20260503032113 59 120 2.0 2.0 0.00 0.00 0.00 91 1011.7
20260503031610 59 123 2.0 2.0 0.00 0.00 0.00 91 1011.6
20260503031108 59 160 1.0 1.0 0.00 0.00 0.00 91 1011.4
20260503030603 60 119 1.0 1.0 0.00 0.00 0.00 91 1011.6
20260503030100 60 136 2.0 2.0 0.00 0.00 0.00 91 1011.5
20260503025557 60 143 2.0 2.0 0.00 0.00 0.00 90 1011.3
20260503025055 60 101 5.0 5.0 0.00 0.00 0.00 90 1011.6
20260503024550 60 180 2.0 2.0 0.00 0.00 0.00 90 1011.4
20260503024048 60 169 2.0 3.0 0.00 0.00 0.00 90 1011.3
20260503023545 60 126 2.0 3.0 0.00 0.00 0.00 89 1011.2
20260503023042 60 199 2.0 3.0 0.00 0.00 0.00 89 1011.4
20260503022538 61 179 2.0 2.0 0.00 0.00 0.00 89 1011.3
20260503022033 61 180 2.0 2.0 0.00 0.00 0.00 88 1011.2
20260503021530 61 159 2.0 3.0 0.00 0.00 0.00 88 1011.2
20260503021027 61 154 1.0 1.0 0.00 0.00 0.00 88 1011.1
20260503020524 61 115 2.0 3.0 0.00 0.00 0.00 88 1011.2
20260503020021 62 170 3.0 3.0 0.00 0.00 0.00 87 1011.2
20260503015518 62 189 1.0 2.0 0.00 0.00 0.00 87 1011.3
20260503015015 62 103 2.0 2.0 0.00 0.00 0.00 86 1011.2
20260503014511 62 194 2.0 2.0 0.00 0.00 0.00 86 1011.3
20260503014009 62 130 4.0 5.0 0.00 0.00 0.00 86 1011.4
20260503013506 63 85 4.0 6.0 0.00 0.00 0.00 85 1011.1
20260503013004 63 111 5.0 7.0 0.00 0.00 0.00 85 1010.9
20260503012501 63 109 3.0 5.0 0.00 0.00 0.00 84 1010.6
20260503011956 64 126 2.0 3.0 0.00 0.00 0.00 84 1011.1
20260503011454 64 87 7.0 8.0 0.00 0.00 0.00 83 1010.9
20260503010951 64 99 5.0 5.0 0.00 0.00 0.00 83 1010.7
20260503010447 64 155 2.0 5.0 0.00 0.00 0.00 82 1010.9
20260503005945 64 111 3.0 3.0 0.00 0.00 0.00 82 1010.7
20260503005442 65 103 5.0 7.0 0.00 0.00 0.00 80 1010.9
20260503004938 65 106 4.0 5.0 0.00 0.00 0.00 80 1010.7
20260503004435 66 139 7.0 8.0 0.00 0.00 0.00 79 1010.4
20260503003933 67 113 7.0 8.0 0.00 0.00 0.00 78 1010.7
20260503003429 67 130 5.0 7.0 0.00 0.00 0.00 78 1010.9
20260503002927 67 129 4.0 5.0 0.00 0.00 0.00 78 1011.2
20260503002424 67 102 8.0 9.0 0.00 0.00 0.00 77 1010.9
20260503001920 67 107 7.0 9.0 0.00 0.00 0.00 77 1011.2
20260503001417 67 137 6.0 7.0 0.00 0.00 0.00 77 1011.0
20260503000915 68 116 3.0 3.0 0.00 0.00 0.00 76 1010.7
20260503000411 68 152 4.0 6.0 0.00 0.00 0.00 75 1011.0
20260502235908 68 104 8.0 10.0 0.00 0.00 0.00 74 1010.7
20260502235405 68 176 5.0 7.0 0.00 0.00 0.00 74 1011.0
20260502234902 68 141 7.0 10.0 0.00 0.00 0.00 74 1010.7
20260502234353 68 65 8.0 10.0 0.00 0.00 0.00 74 1010.7
20260502233850 68 111 4.0 6.0 0.00 0.00 0.00 75 1011.0
20260502233346 69 101 5.0 6.0 0.00 0.00 0.00 74 1010.7
20260502232843 69 115 2.0 3.0 0.00 0.00 0.00 74 1011.1
20260502232339 68 143 2.0 3.0 0.00 0.00 0.00 75 1011.1
20260502231836 68 125 7.0 8.0 0.00 0.00 0.00 75 1011.0
20260502231334 69 113 3.0 3.0 0.00 0.00 0.00 75 1011.1
20260502230832 68 129 3.0 5.0 0.00 0.00 0.00 75 1011.2
20260502230330 68 99 10.0 11.0 0.00 0.00 0.00 75 1011.0
20260502225826 69 202 5.0 8.0 0.00 0.00 0.00 74 1011.1
20260502225323 69 111 7.0 13.0 0.00 0.00 0.00 75 1011.0
20260502224820 70 76 5.0 6.0 0.00 0.00 0.00 73 1011.2
20260502224316 70 111 6.0 7.0 0.00 0.00 0.00 73 1011.4
20260502223814 70 124 3.0 7.0 0.00 0.00 0.00 73 1011.4
20260502223312 71 104 9.0 11.0 0.00 0.00 0.00 72 1011.5
20260502222809 70 89 5.0 8.0 0.00 0.00 0.00 72 1011.6
20260502222306 70 102 7.0 8.0 0.00 0.00 0.00 72 1011.6
20260502221801 71 114 6.0 8.0 0.00 0.00 0.00 72 1011.9
20260502221252 71 179 3.0 5.0 0.00 0.00 0.00 72 1011.8
20260502220749 71 126 4.0 5.0 0.00 0.00 0.00 71 1011.9
20260502220245 70 97 7.0 9.0 0.00 0.00 0.00 73 1011.7
20260502215742 71 89 4.0 6.0 0.00 0.00 0.00 72 1011.9
20260502215239 71 58 0.0 3.0 0.00 0.00 0.00 71 1011.9
20260502214736 69 113 3.0 5.0 0.00 0.00 0.00 74 1012.0
20260502214235 71 177 8.0 11.0 0.00 0.00 0.00 72 1012.1
20260502213730 71 166 4.0 6.0 0.00 0.00 0.00 73 1012.2
20260502213228 71 172 2.0 3.0 0.00 0.00 0.00 71 1012.2
20260502212726 73 182 3.0 5.0 0.00 0.00 0.00 71 1012.1
20260502212224 72 177 3.0 5.0 0.00 0.00 0.00 71 1012.2
20260502211720 72 115 6.0 8.0 0.00 0.00 0.00 70 1012.1
20260502211217 72 118 6.0 8.0 0.00 0.00 0.00 71 1012.2
20260502210714 71 124 7.0 9.0 0.00 0.00 0.00 73 1011.8
20260502210211 71 92 6.0 8.0 0.00 0.00 0.00 72 1012.1
20260502205708 72 153 3.0 3.0 0.00 0.00 0.00 71 1012.0
20260502205204 72 90 5.0 6.0 0.00 0.00 0.00 69 1012.1
20260502204702 72 108 6.0 8.0 0.00 0.00 0.00 71 1012.2
20260502204159 71 110 10.0 13.0 0.00 0.00 0.00 72 1012.0